Orbital elements: 2008 UB7 Earth MOID = 0.0009 AU Epoch 2008 Nov. 30.0 TT = JDT 2454800.5 MPC M 340.78255 (2000.0) P Q n 0.72056938 Peri. 287.49212 -0.84015731 -0.54187957 a 1.2322122 Node 219.70426 +0.50995097 -0.77523704 e 0.5914715 Incl. 2.01038 +0.18462314 -0.32461370 P 1.37 H 23.8 G 0.15 U 8